[[{"header":{"parameterUnit":"m.s-1","parameterCategory":1,"la1":30.2991,"la2":30.254,"lo1":-89.0895,"lo2":-89.0444,"dy":0.0017,"dx":0.0017,"nx":28,"ny":28,"refTime":"2025-03-12T03:00:00:Z","depth":0,"parameterNumber":2,"parameterNumberName":"U-component_of_WINDS"},"data":[0,0,0,0,0,0,0,0,0,0,0,0,0,0,0,0,0,0,0,0,0,0,0,0,0,0,0,0,0,0,0,0,0,0,0,0,0,0,0,0,0,0,0,0,0,0,0,0,0,0,0,0,0,0,0,0,0,0,2.5919,2.592,0,2.6034,2.6036,2.6037,2.5988,2.5985,2.5983,2.598,2.6105,2.6111,2.6117,0,0,0,0,0,0,0,0,0,0,0,0,0,2.566,2.5665,2.5918,2.592,2.5921,2.6034,2.6036,2.6037,2.5989,2.5985,2.5982,2.5979,2.6103,2.611,2.6117,0,0,0,0,0,0,0,0,0,0,0,0,0,2.5774,2.5667,2.5918,2.5911,2.5911,2.6034,2.6036,2.6038,2.5989,2.5985,2.5981,2.5977,2.6101,2.6109,2.6118,2.6257,0,0,2.6146,2.6149,0,0,0,0,0,0,0,0,2.5768,2.5784,2.591,2.5911,2.5912,2.5992,2.599,2.6112,2.599,2.596,2.598,2.5975,2.6071,2.6083,2.6114,2.6263,2.6269,2.6146,2.6152,2.6156,2.6158,0,0,0,0,0,0,0,2.576,2.5778,2.5964,2.5912,2.5913,2.5903,2.5914,2.6013,2.6038,2.5962,2.5959,2.5973,2.6071,2.6105,2.6116,2.6271,2.6146,2.6154,2.616,2.6163,2.6539,2.6544,0,0,0,0,0,0,2.5751,2.5772,2.5961,2.5968,2.5828,2.5911,2.5924,2.5971,2.6037,2.6043,2.5976,2.597,2.6092,2.6106,2.612,2.6287,2.6155,2.6164,2.6169,2.6534,2.654,2.6545,0,0,0,0,0,0,2.5746,2.5768,2.5956,2.5869,2.5892,2.592,2.5973,2.5975,2.6009,2.6047,2.6052,2.6006,2.6089,2.6108,2.6223,2.629,2.6168,2.6176,2.6529,2.6536,2.6543,2.6621,0,0,0,0,0,0,2.5738,2.5767,2.5819,2.5871,2.5897,2.6055,2.5977,2.5981,2.6024,2.6017,2.6077,2.6083,2.6087,2.621,2.6232,2.63,2.6183,2.6523,2.6532,2.654,2.6612,2.6629,2.6644,0,0,0,0,0,2.5729,2.5838,2.5822,2.5845,2.5962,2.6059,2.6075,2.6076,2.603,2.6083,2.6107,2.6081,2.6279,2.6222,2.6246,2.6319,2.6519,2.653,2.654,2.6605,2.6626,2.6644,0,0,0,0,0,0,2.5796,2.5845,2.5827,2.5955,2.6003,2.6051,2.6118,2.6099,2.6162,2.6154,2.6155,2.6169,2.6287,2.6315,2.625,2.6456,2.6392,2.6408,2.6434,2.6454,2.647,2.646,2.619,0,0,0,0,0,2.5825,2.5898,2.5937,2.6047,2.6071,2.6091,2.6133,2.613,2.618,2.6201,2.6234,2.6286,2.6359,2.6408,2.6479,2.6616,2.6628,2.6678,2.6694,2.6706,2.672,2.6794,2.6816,2.6579,2.6579,2.6579,0,0,2.5887,2.5922,2.5969,2.6061,2.6097,2.6174,2.6108,2.6193,2.625,2.6215,2.6324,2.635,2.6408,2.6534,2.6592,2.6561,2.6788,2.672,2.673,2.6737,2.6807,2.6829,2.6849,2.6587,2.6585,2.6584,0,0,2.6038,2.6072,2.6166,2.6204,2.6259,2.6271,2.6294,2.6344,2.6359,2.6469,2.6443,2.6513,2.664,2.6682,2.672,2.6886,2.6864,2.6909,2.6992,2.7064,2.7083,2.7099,2.7158,2.7179,2.6923,2.6923,2.6923,0,2.6108,2.6221,2.6218,2.6303,2.6344,2.6313,2.6409,2.6447,2.6523,2.6553,2.6517,2.6675,2.6712,2.6847,2.6887,2.692,2.6946,2.6902,2.708,2.7097,2.7112,2.7168,2.719,2.6928,2.6927,2.6927,2.6926,0,2.6304,2.6382,2.6452,2.6523,2.6573,2.6663,2.6675,2.6726,2.6718,2.6734,2.6846,2.6889,2.6967,2.6999,2.6994,2.7133,2.7112,2.7078,2.7014,2.714,2.7192,2.7213,2.6935,2.6933,2.6932,2.693,0,0,2.6501,2.6568,2.6593,2.6625,2.6683,2.6745,2.6834,2.6907,2.695,2.7005,2.708,2.7188,2.7156,2.7199,2.7198,2.7261,2.7389,2.722,2.7221,2.7249,2.7544,2.7569,2.7593,2.7374,2.7378,2.7382,2.7539,0,2.6655,2.6809,2.6808,2.6951,2.7023,2.6994,2.7072,2.7117,2.7135,2.72,2.722,2.7296,2.7249,2.7274,2.7336,2.736,2.7448,2.7349,2.7445,2.7448,2.743,2.7621,2.7647,2.7793,2.756,2.7563,2.7566,0,2.6856,2.6913,2.7062,2.7108,2.7139,2.7208,2.7275,2.7337,2.7388,2.7397,2.7444,2.7433,2.7525,2.7458,2.7585,2.7518,2.7557,2.7575,2.7581,2.759,2.7514,2.7634,2.784,2.7862,2.7598,2.7595,2.7593,0,2.6983,2.7098,2.7201,2.7229,2.7286,2.7336,2.7362,2.7409,2.7452,2.7512,2.754,2.761,2.7649,2.7704,2.7713,2.7663,2.784,2.7774,2.785,2.785,2.7888,2.7886,2.8103,2.7916,2.7915,2.7915,2.7914,0,2.7155,2.7247,2.7258,2.7322,2.7424,2.7424,2.7526,2.7548,2.759,2.7658,2.7639,2.7704,2.7712,2.778,2.7788,2.7891,2.7909,2.7919,2.792,2.792,2.7919,2.7945,2.7935,2.7921,2.7919,2.7918,2.7917,0,2.7314,2.7325,2.7436,2.748,2.7493,2.7566,2.7605,2.7666,2.7681,2.7768,2.7789,2.7813,2.7892,2.7905,2.7999,2.8004,2.8128,2.8119,2.811,2.8108,2.8183,2.8175,2.8424,2.8457,2.8249,2.8251,2.8253,0,2.7422,2.7492,2.7542,2.7585,2.7614,2.7684,2.7728,2.773,2.7777,2.7839,2.7893,2.7969,2.8029,2.8157,2.8184,2.8255,2.8248,2.833,2.8258,2.8256,2.8247,2.8243,2.8249,2.8344,2.8346,2.8348,2.8349,0,2.7613,2.7615,2.7677,2.7742,2.7794,2.7845,2.7894,2.7931,2.794,2.7994,2.8072,2.8119,2.8213,2.8289,2.836,2.8389,2.8371,2.8371,2.8393,2.8393,2.8384,2.8389,2.8146,2.8366,2.8364,2.8363,2.8362,2.8361,2.7749,2.7809,2.7853,2.7923,2.796,2.8005,2.8064,2.8086,2.815,2.8225,2.8223,2.8309,2.8358,2.8451,2.8485,2.8553,2.8527,2.8558,2.8566,2.8573,2.8579,2.8374,2.8566,2.8566,2.8566,2.8565,2.8565,0,2.7938,2.7964,2.8029,2.8096,2.8151,2.8127,2.818,2.8228,2.8303,2.8349,2.8408,2.8499,2.8572,2.8604,2.8677,2.8725,2.8719,2.8744,2.874,2.8747,2.8599,2.8573,2.8748,2.8748,2.8748,2.8748,2.8748,2.8748,2.8042,2.8141,2.8148,2.8266,2.8292,2.8374,2.8406,2.8449,2.8485,2.8585,2.8645,2.8665,2.8706,2.878,2.8847,2.8855,2.8882,2.8911,2.8915,2.8776,2.8757,2.874,2.8715,2.8917,2.8917,2.9056,2.9058,2.9059]},{"header":{"parameterUnit":"m.s-1","parameterCategory":1,"la1":30.2991,"la2":30.254,"lo1":-89.0895,"lo2":-89.0444,"dy":0.0017,"dx":0.0017,"nx":28,"ny":28,"refTime":"2025-03-12T03:00:00:Z","depth":0,"parameterNumber":3,"parameterNumberName":"V-component_of_WINDS"},"data":[0,0,0,0,0,0,0,0,0,0,0,0,0,0,0,0,0,0,0,0,0,0,0,0,0,0,0,0,0,0,0,0,0,0,0,0,0,0,0,0,0,0,0,0,0,0,0,0,0,0,0,0,0,0,0,0,0,0,0.9832,0.9832,0,0.9837,0.9837,0.9837,0.9811,0.9811,0.981,0.9809,0.9816,0.9817,0.9817,0,0,0,0,0,0,0,0,0,0,0,0,0,0.9802,0.9803,0.9832,0.9832,0.9832,0.9837,0.9837,0.9837,0.9812,0.9811,0.981,0.9809,0.9816,0.9817,0.9818,0,0,0,0,0,0,0,0,0,0,0,0,0,0.9812,0.9803,0.9832,0.982,0.9819,0.9837,0.9837,0.9837,0.9812,0.9811,0.981,0.9808,0.9815,0.9816,0.9818,0.9848,0,0,0.9822,0.9822,0,0,0,0,0,0,0,0,0.9811,0.9813,0.9822,0.9821,0.982,0.9822,0.9829,0.9841,0.9812,0.9815,0.9809,0.9808,0.9819,0.982,0.9823,0.9848,0.9849,0.9822,0.9823,0.9823,0.9824,0,0,0,0,0,0,0,0.9811,0.9813,0.9834,0.9822,0.9821,0.9815,0.9815,0.9831,0.9823,0.9814,0.9812,0.9813,0.9818,0.9822,0.9823,0.9849,0.9822,0.9823,0.9824,0.9824,0.9898,0.9899,0,0,0,0,0,0,0.9811,0.9812,0.9834,0.9834,0.9813,0.9816,0.9816,0.9823,0.9823,0.9822,0.9814,0.9812,0.982,0.9822,0.9823,0.9859,0.9823,0.9824,0.9825,0.9897,0.9898,0.99,0,0,0,0,0,0,0.9811,0.9814,0.9834,0.9823,0.9825,0.9818,0.9825,0.9823,0.9827,0.9823,0.9821,0.982,0.982,0.9822,0.9842,0.9858,0.9825,0.9826,0.9895,0.9897,0.9899,0.9929,0,0,0,0,0,0,0.981,0.9814,0.9825,0.9823,0.9826,0.9852,0.9826,0.9824,0.9829,0.9827,0.9827,0.9826,0.9819,0.984,0.9843,0.986,0.9827,0.9894,0.9896,0.9898,0.9927,0.9932,0.9936,0,0,0,0,0,0.9809,0.9834,0.9826,0.9828,0.9839,0.9853,0.9854,0.9845,0.9831,0.9842,0.9839,0.9826,0.9856,0.9842,0.9846,0.9863,0.9893,0.9896,0.9898,0.9925,0.9931,0.9936,0,0,0,0,0,0,0.9838,0.9833,0.9824,0.9849,0.9851,0.9849,0.9863,0.9852,0.9859,0.9856,0.9844,0.9845,0.9867,0.9867,0.9852,0.9892,0.9872,0.9876,0.9891,0.9897,0.9902,0.9901,0.9828,0,0,0,0,0,0.9848,0.9859,0.9854,0.9876,0.9878,0.987,0.9876,0.9868,0.987,0.9871,0.987,0.9873,0.9883,0.989,0.9899,0.9926,0.9926,0.994,0.9945,0.9948,0.9952,0.9966,0.9972,0.9908,0.9908,0.9908,0,0,0.9867,0.9866,0.9873,0.9882,0.9883,0.9895,0.9871,0.9885,0.9894,0.9874,0.9892,0.9891,0.9894,0.9918,0.9929,0.9919,0.9969,0.9952,0.9955,0.9956,0.9969,0.9975,0.9981,0.991,0.991,0.991,0,0,0.9908,0.9908,0.9927,0.9928,0.9929,0.9924,0.9928,0.9927,0.9925,0.9944,0.9929,0.9939,0.9957,0.9959,0.9963,1.0004,0.9993,1.0007,1.0032,1.0046,1.0051,1.0056,1.007,1.0076,1.001,1.001,1.0011,0,0.9933,0.9949,0.9938,0.9952,0.9956,0.9938,0.9956,0.9958,0.9963,0.9966,0.9955,0.9976,0.9976,1.0001,1.001,1.0014,1.0019,1.0007,1.0051,1.0056,1.006,1.0074,1.0079,1.0012,1.0012,1.0012,1.0012,0,0.9979,0.9991,1.0006,1.001,1.0015,1.0032,1.0023,1.003,1.0021,1.0017,1.0036,1.0036,1.0044,1.0049,1.0042,1.0072,1.0066,1.0053,1.0033,1.0068,1.0081,1.0086,1.0015,1.0014,1.0014,1.0013,0,0,1.004,1.0036,1.0042,1.0043,1.0043,1.0052,1.0068,1.0075,1.0082,1.0085,1.0098,1.0113,1.0101,1.0105,1.0097,1.0109,1.0142,1.0095,1.0095,1.0104,1.0176,1.0186,1.0192,1.0134,1.0135,1.0136,1.0175,0,1.0081,1.0106,1.0096,1.0123,1.0133,1.0115,1.0129,1.013,1.0127,1.0136,1.0132,1.0142,1.0125,1.0128,1.0139,1.0136,1.0156,1.0132,1.0146,1.0147,1.0146,1.0199,1.0209,1.0247,1.018,1.0181,1.0182,0,1.0132,1.0136,1.0164,1.0161,1.0165,1.0178,1.0183,1.0192,1.0193,1.0189,1.0194,1.0183,1.0198,1.0178,1.0199,1.0183,1.0187,1.0187,1.0188,1.0189,1.0167,1.0202,1.0259,1.0264,1.019,1.0189,1.0188,0,1.0173,1.0187,1.0205,1.0207,1.0204,1.0213,1.0212,1.0212,1.0217,1.0222,1.0225,1.0232,1.0236,1.0242,1.0233,1.0219,1.0256,1.0235,1.0253,1.0254,1.0262,1.0262,1.0321,1.0265,1.0265,1.0265,1.0265,0,1.022,1.0238,1.0223,1.0235,1.0254,1.0241,1.0261,1.0258,1.0258,1.0269,1.0254,1.0264,1.0252,1.0262,1.0255,1.0273,1.0275,1.0273,1.0271,1.0275,1.0275,1.0278,1.0275,1.0266,1.0266,1.0266,1.0265,0,1.027,1.0261,1.028,1.0275,1.0275,1.0289,1.0285,1.0296,1.029,1.0304,1.0306,1.0299,1.0309,1.03,1.0311,1.0306,1.033,1.0325,1.033,1.0328,1.0347,1.0346,1.0411,1.0419,1.0357,1.0358,1.0359,0,1.0301,1.0314,1.031,1.0316,1.0316,1.0325,1.033,1.0318,1.0323,1.0325,1.0335,1.0344,1.035,1.0367,1.0363,1.037,1.0365,1.0387,1.0366,1.0369,1.0365,1.0365,1.0366,1.0392,1.0392,1.0393,1.0393,0,1.0356,1.0351,1.0358,1.0363,1.0369,1.0372,1.0375,1.038,1.0368,1.0375,1.0385,1.0389,1.0399,1.0408,1.0414,1.0413,1.0402,1.04,1.0405,1.0409,1.0411,1.041,1.0342,1.0399,1.0398,1.0398,1.0398,1.0397,1.0398,1.0408,1.0407,1.0415,1.0415,1.0418,1.0427,1.0423,1.043,1.0437,1.0429,1.0441,1.0441,1.0448,1.0449,1.0458,1.0449,1.0456,1.0458,1.046,1.0462,1.0409,1.0459,1.0459,1.0459,1.0458,1.0458,0,1.0453,1.045,1.0458,1.0461,1.0468,1.0455,1.0457,1.0463,1.0473,1.0474,1.048,1.0491,1.0499,1.0495,1.0502,1.051,1.0505,1.0513,1.0512,1.0512,1.047,1.0465,1.0517,1.0517,1.0517,1.0517,1.0517,1.0517,1.0482,1.0499,1.0493,1.051,1.0508,1.0519,1.0521,1.0523,1.0524,1.0536,1.0543,1.0539,1.0538,1.0545,1.0552,1.055,1.0554,1.0563,1.056,1.0521,1.0515,1.051,1.0505,1.0564,1.0564,1.0602,1.0602,1.0602]}]]